Location: Unspecified
(0.0000°N, 0.0000°E)
Time: 16:14:22
(UTC+00:00)

Altair - All Passes

Search period start: 22 September 2014 00:00
Search period end: 02 October 2014 00:00
Orbit: 1502 x 1682 km, 47.2° (Epoch: 22 September)

Date Brightness Start Highest point End Pass type
(mag) Time Alt. Az. Time Alt. Az. Time Alt. Az.
22 Sep - 08:02:18 10° SSW 08:11:06 35° SE 08:19:59 10° ENE daylight
22 Sep - 10:06:07 10° SW 10:15:47 53° NW 10:25:34 10° NNE daylight
22 Sep - 18:53:04 10° NNE 18:56:06 12° NE 18:59:06 10° ENE visible
22 Sep - 20:51:58 10° NNW 21:01:14 71° NE 21:10:20 10° SE visible
22 Sep - 22:59:06 10° W 23:05:48 23° SW 23:12:32 10° S night (unlit)
23 Sep - 07:37:28 10° S 07:45:54 31° SE 07:54:26 10° ENE daylight
23 Sep - 09:40:49 10° SW 09:50:37 59° NW 10:00:33 10° NNE daylight
23 Sep - 20:26:55 10° NNW 20:36:07 63° NE 20:45:08 10° SE visible
23 Sep - 22:33:26 10° W 22:40:38 26° SW 22:47:51 10° S visible
24 Sep - 07:12:41 10° S 07:20:42 28° SE 07:28:49 10° ENE daylight
24 Sep - 09:15:34 10° SW 09:25:27 66° NW 09:35:29 10° NNE daylight
24 Sep - 11:27:45 10° WNW 11:30:53 12° NW 11:34:02 10° NNW daylight
24 Sep - 20:01:53 10° NNW 20:11:00 56° NE 20:19:55 10° SE visible
24 Sep - 22:07:52 10° WNW 22:15:29 29° SW 22:23:06 10° S visible
25 Sep - 06:47:58 10° S 06:55:30 24° SE 07:03:07 10° E daylight
25 Sep - 08:50:20 10° SW 09:00:17 73° NW 09:10:24 10° NNE daylight
25 Sep - 11:01:02 10° WNW 11:05:35 14° NW 11:10:09 10° NNW daylight
25 Sep - 19:36:53 10° NNW 19:45:53 50° NE 19:54:39 10° ESE visible
25 Sep - 21:42:21 10° WNW 21:50:20 33° SW 21:58:18 10° SSE visible
26 Sep - 06:23:18 10° S 06:30:17 21° SE 06:37:20 10° E daylight
26 Sep - 08:25:09 10° SW 08:35:07 81° NW 08:45:17 10° NE daylight
26 Sep - 10:34:46 10° W 10:40:18 16° NW 10:45:53 10° N daylight
26 Sep - 19:11:55 10° NNW 19:20:45 45° NE 19:29:21 10° ESE visible
26 Sep - 21:16:53 10° WNW 21:25:12 37° SW 21:33:28 10° SSE visible
27 Sep - 05:58:44 10° S 06:05:03 19° SE 06:11:26 10° E daylight
27 Sep - 08:00:00 10° SW 08:09:57 89° NW 08:20:07 10° NE daylight
27 Sep - 10:08:43 10° W 10:15:02 18° NW 10:21:24 10° N daylight
27 Sep - 18:46:59 10° NNW 18:55:37 40° NE 19:04:00 10° ESE visible
27 Sep - 20:51:29 10° WNW 21:00:05 42° SW 21:08:35 10° SSE visible
28 Sep - 05:34:18 10° SSE 05:39:49 16° SE 05:45:22 10° E daylight
28 Sep - 07:34:53 10° SW 07:44:47 83° SE 07:54:56 10° NE daylight
28 Sep - 09:42:50 10° W 09:49:46 21° NW 09:56:48 10° N daylight
28 Sep - 18:22:05 10° NNW 18:30:28 35° NE 18:38:36 10° ESE visible
28 Sep - 20:26:07 10° WNW 20:34:57 48° SW 20:43:40 10° SSE visible
29 Sep - 05:10:04 10° SSE 05:14:33 14° SE 05:19:04 10° ESE visible
29 Sep - 07:09:47 10° SW 07:19:38 75° SE 07:29:43 10° NE daylight
29 Sep - 09:17:03 10° W 09:24:32 24° NW 09:32:07 10° N daylight
29 Sep - 17:57:12 10° N 18:05:18 31° NE 18:13:09 10° ESE visible
29 Sep - 20:00:48 10° NW 20:09:50 54° SW 20:18:44 10° SSE visible
30 Sep - 04:46:15 10° SSE 04:49:17 12° SE 04:52:20 10° ESE visible
30 Sep - 06:44:44 10° SSW 06:54:29 68° SE 07:04:28 10° NE daylight
30 Sep - 08:51:23 10° W 08:59:18 27° NW 09:07:22 10° N daylight
30 Sep - 17:32:23 10° N 17:40:08 28° NE 17:47:39 10° ESE daylight
30 Sep - 19:35:30 10° NW 19:44:44 60° SW 19:53:45 10° SSE visible
01 Oct - 06:19:43 10° SSW 06:29:19 61° SE 06:39:11 10° NE daylight
01 Oct - 08:25:48 10° WSW 08:34:05 30° NW 08:42:33 10° N daylight
01 Oct - 17:07:36 10° N 17:14:56 25° NE 17:22:04 10° E daylight
01 Oct - 19:10:15 10° NW 19:19:37 68° SW 19:28:45 10° SSE visible
01 Oct - 21:22:46 10° WSW 21:24:39 11° SW 21:26:32 10° SSW visible
